Flag for Sweden Weather past 2 weeks in Uppsala, Sweden

Now
52 °F

Clear.


Feels Like: 51 °F
Forecast: 54 / 58 °F
Wind: 5 mph from East

Location: Stockholm / Arlanda

Current Time: Sep 1, 2015 at 2:11:57 AM

Latest Report: Sep 1, 2015 at 1:20 AM


Visibility: 10 mi

Pressure: 29.95 "Hg

Humidity: 94%

Dew point: 50 °F

Location of UppsalaLocation

Historic Weather in Uppsala — Graph

°F

Uppsala temperature yesterday

Maximum temperature yesterday: 68 °F (at 4:20 PM)
Minimum temperature yesterday: 46 °F (at 4:20 AM)
Average temperature yesterday: 58 °F

Past Weeks' High & Low Weather Summary

 TemperatureHumidityPressure
High77 °F (Aug 24, 12:50 PM)100% (Aug 17, 12:20 AM)30.45 "Hg (Aug 17, 12:20 AM)
Low43 °F (Aug 20, 3:20 AM)31% (Aug 18, 3:50 PM)29.62 "Hg (Aug 27, 5:50 PM)
Average62 °F72%30.11 "Hg
* Reported Aug 17 12:20 AM — Sep 1 12:50 AM, Uppsala, Weather by CustomWeather, © 2015

Note: Actual official high and low records may vary slightly from our data, if they occured in-between our weather recording intervals... More about our weather records

Advertising

Uppsala weather history for previous 24 hours

 ConditionsComfort  
Time TempWeatherWind HumidityBarometerVisibility
12:50 AM
Tue, Sep 1
52 °FClear.3 mph94%29.98 "Hg10 mi
12:20 AM52 °FClear.5 mph94%29.98 "Hg10 mi
11:20 PM
Mon, Aug 31
52 °FClear.2 mph94%29.98 "Hg10 mi
10:50 PM52 °FClear.3 mph94%29.98 "Hg10 mi
10:20 PM54 °FClear.2 mph94%29.98 "Hg10 mi
9:50 PM55 °FClear.No wind88%29.98 "Hg10 mi
9:20 PM59 °FClear.2 mph77%29.98 "Hg10 mi
8:50 PM59 °FPassing clouds.6 mph77%30.01 "HgN/A
7:50 PM63 °FSunny.5 mph68%29.98 "Hg10 mi
7:20 PM63 °FSunny.5 mph68%29.98 "Hg10 mi
6:50 PM64 °FPassing clouds.5 mph60%30.01 "HgN/A
6:20 PM64 °FSunny.6 mph60%30.01 "Hg10 mi
5:50 PM66 °FSunny.7 mph60%30.01 "Hg10 mi
5:20 PM66 °FPassing clouds.7 mph52%30.01 "HgN/A
4:50 PM66 °FSunny.8 mph56%30.01 "Hg10 mi
4:20 PM68 °FSunny.8 mph53%30.01 "Hg10 mi
3:50 PM66 °FPassing clouds.7 mph52%30.04 "HgN/A
3:20 PM66 °FSunny.8 mph56%30.04 "Hg10 mi
2:50 PM66 °FPassing clouds.9 mph56%30.04 "HgN/A
2:20 PM66 °FSunny.8 mph60%30.04 "Hg10 mi
1:50 PM66 °FSunny.8 mph56%30.04 "Hg10 mi
1:20 PM66 °FSunny.7 mph56%30.04 "Hg10 mi
12:50 PM66 °FSunny.8 mph56%30.04 "Hg10 mi
12:20 PM66 °FSunny.9 mph60%30.07 "Hg10 mi
11:50 AM64 °FSunny.10 mph64%30.07 "Hg10 mi
11:20 AM66 °FSunny.8 mph60%30.07 "Hg10 mi
10:50 AM64 °FSunny.8 mph68%30.07 "Hg10 mi
10:20 AM63 °FSunny.9 mph73%30.07 "Hg10 mi
9:50 AM61 °FSunny.8 mph77%30.07 "Hg10 mi
9:20 AM61 °FSunny.7 mph77%30.04 "Hg10 mi
8:50 AM59 °FSunny.6 mph82%30.07 "Hg10 mi
8:20 AM57 °FSunny.7 mph88%30.07 "Hg10 mi
7:50 AM55 °FSunny.7 mph94%30.04 "Hg10 mi
7:20 AM55 °FSunny.3 mph94%30.04 "Hg10 mi
6:50 AM54 °FSunny.5 mph94%30.04 "Hg10 mi
6:20 AM50 °FClear.3 mph100%30.04 "Hg10 mi
5:50 AM50 °FClear.5 mph100%30.04 "Hg10 mi
5:20 AM48 °FClear.3 mph100%30.04 "Hg10 mi
4:50 AM48 °FClear.3 mph100%30.04 "Hg10 mi
4:20 AM46 °FClear.2 mph100%30.04 "Hg10 mi
3:50 AM48 °FClear.2 mph100%30.07 "Hg10 mi
3:20 AM52 °FClear.3 mph94%30.07 "Hg10 mi
2:50 AM50 °FClear.3 mph94%30.07 "Hg10 mi
2:20 AM52 °FClear.3 mph94%30.07 "Hg10 mi
Weather by CustomWeather, © 2015

See weather overviewHow to use our weather pages